This is the latest recevied weather packets stored in our database for station/object WA9SDJ-13. If no packets are shown the sender has not sent any weather packets the latest 1 day(s).
| Time | Temp. | Humidity | Pressure | Rain* | Wind** | Luminosity | Snow |
|---|---|---|---|---|---|---|---|
| 1778085419 | 13.33° C | 72% | 1014 hPa | 0 mm | - | 366 W/m² | - |
| 1778085359 | 13.33° C | 73% | 1014 hPa | 0 mm | - | 368 W/m² | - |
| 1778085300 | 13.33° C | 73% | 1014 hPa | 0 mm | - | 382 W/m² | - |
| 1778085179 | 13.33° C | 76% | 1013.9 hPa | 0 mm | - | 434 W/m² | - |
| 1778085119 | 12.78° C | 77% | 1013.9 hPa | 0 mm | - | 482 W/m² | - |
| 1778085059 | 12.78° C | 78% | 1013.8 hPa | 0 mm | - | 489 W/m² | - |
| 1778084879 | 12.78° C | 78% | 1013.8 hPa | 0 mm | - | 454 W/m² | - |
| 1778084819 | 12.78° C | 76% | 1013.8 hPa | 0 mm | - | 404 W/m² | - |
| 1778084759 | 12.78° C | 77% | 1013.8 hPa | 0 mm | - | 361 W/m² | - |
| 1778084639 | 12.78° C | 79% | 1013.8 hPa | 0 mm | - | 336 W/m² | - |
| 1778084579 | 12.78° C | 80% | 1013.8 hPa | 0 mm | - | 404 W/m² | - |
| 1778084219 | 12.22° C | 79% | 1013.9 hPa | 0 mm | - | 380 W/m² | - |
| 1778083979 | 12.22° C | 81% | 1013.9 hPa | 0 mm | - | 313 W/m² | - |
| 1778083919 | 12.22° C | 80% | 1013.9 hPa | 0 mm | - | 301 W/m² | - |
| 1778083859 | 12.22° C | 80% | 1013.9 hPa | 0 mm | - | 294 W/m² | - |
| 1778083679 | 12.22° C | 79% | 1013.8 hPa | 0 mm | - | 331 W/m² | - |
| 1778083619 | 12.22° C | 79% | 1013.8 hPa | 0 mm | - | 308 W/m² | - |
| 1778083559 | 12.22° C | 79% | 1013.8 hPa | 0 mm | - | 281 W/m² | - |
| 1778083078 | 12.22° C | 78% | 1013.9 hPa | 0 mm | - | 164 W/m² | - |
| 1778083018 | 12.22° C | 78% | 1013.9 hPa | 0 mm | - | 158 W/m² | - |
| 1778082898 | 12.22° C | 80% | 1014 hPa | 0 mm | - | 155 W/m² | - |
| 1778082838 | 12.22° C | 79% | 1014 hPa | 0 mm | - | 167 W/m² | - |
| 1778082778 | 12.22° C | 80% | 1013.8 hPa | 0 mm | - | 169 W/m² | - |
| 1778082718 | 12.22° C | 80% | 1013.8 hPa | 0 mm | - | 167 W/m² | - |
| 1778082658 | 12.22° C | 78% | 1013.8 hPa | 0 mm | - | 167 W/m² | - |
* Rain latest hour (hover to see other rain measurements)
** Current wind speed in m/s (hover to see current wind gust speed)